Regional Weather Roundup
Issued by NWS

Home | Current Version | Previous Version | Graphics & Text | Print | Product List | Glossary On
Versions: 1 2 3 4 5 6 7 8 9 10 11 12 13 14 15 16 17 18 19 20 21 22 23 24 25 26 27 28 29 30 31 32 33 34 35 36 37 38 39 40 41 42 43 44 45 46 47 48 49 50
000
ASUS45 KBOI 271210
RWRID
WEATHER ROUNDUP FOR IDAHO
NATIONAL WEATHER SERVICE BOISE ID
600 AM MDT WED AUG 27 2014

NOTE: "FAIR" INDICATES FEW OR NO CLOUDS BELOW 12000 FEET
WITH NO SIGNIFICANT WEATHER AND/OR OBSTRUCTIONS TO VISIBILITY

IDZ012-014-271300-
SOUTHWEST IDAHO


CITY           SKY/WX    TMP DP  RH WIND       PRES   REMARKS
BOISE          CLEAR     62  46  55 SE8       30.10R
CALDWELL       CLEAR     55  43  62 S3        30.11R
MOUNTAIN HOME  CLEAR     56  44  64 E7        30.11R
$$

IDZ016-017-271300-
SOUTHCENTRAL IDAHO


CITY           SKY/WX    TMP DP  RH WIND       PRES   REMARKS
BURLEY         CLEAR     51  47  86 S3        30.16R
JEROME         CLEAR     52  47  83 CALM      30.17R
TWIN FALLS     CLEAR     58  48  69 S13       30.16R
$$

IDZ019>023-271300-
SOUTHEAST IDAHO


CITY           SKY/WX    TMP DP  RH WIND       PRES   REMARKS
IDAHO FALLS    PTCLDY    44  42  93 N5        30.20S
POCATELLO      CLEAR     52  50  93 S5        30.19R
REXBURG        PTCLDY    45  42  89 NE5       30.22R
$$

IDZ006-010-011-018-031-032-271300-
CENTRAL IDAHO MOUNTAINS


CITY           SKY/WX    TMP DP  RH WIND       PRES   REMARKS
MCCALL         CLEAR     44  36  73 CALM      30.20S
HAILEY         CLEAR     50  43  76 NW14G20   30.25S
STANLEY          N/A     35  33  92 S3        30.32R
SALMON         CLEAR     46  45  93 CALM      30.21R
CHALLIS        CLEAR     48  42  80 CALM      30.24R
$$

IDZ002-004-006-007-026-271300-
NORTHERN IDAHO


CITY           SKY/WX    TMP DP  RH WIND       PRES   REMARKS
LEWISTON       CLEAR     60  47  61 SE5       30.03S
LOWELL           N/A     52  49  89 NW3       30.14R
COEUR D`ALENE  CLEAR     54  46  76 E3        30.05S
MULLAN PASS    CLEAR     57  38  48 VRB3      30.22S
$$



USA.gov is the U.S. government's official web portal to all federal, state and local government web resources and services.